Location: Claflin County Park
(44.8478°N, 87.5507°W)
Time: 13:40:36
(UTC+00:00)

Cosmos 2360 Rocket - Pass Details

Date: 10 December 2025
Orbit: 834 x 842 km, 71.0° (Epoch: 19 January)

Event Time Altitude Azimuth Distance (km) Brightness Sun altitude
Exits shadow 10:56:04 16° 352° (N) 2,085 4.1 -24.1°
Maximum altitude 11:00:14 40° 56° (NE) 1,220 3.3 -23.4°
Drops below altitude 10° 11:05:29 10° 125° (SE) 2,441 5.5 -22.4°
Sets 11:08:03 0° 133° (SE) 3,371 6.3 -22.0°
